OVERFALLS Weather Reports


Display with metric or nautical units.
time (UTC)temp
F
wind
direction
speed
MPH
gust
MPH
rain 1hr
in
rain 24hr
in
rain mn
in
humidity
%
barometer
mb
20260901173049 91 265 7.0 12.0 0.00 0.00 0.00 63 1016.0
20260901171612 91 258 7.0 13.0 0.00 0.00 0.00 63 1016.1
20260901170104 91 300 5.0 12.0 0.00 0.00 0.00 64 1016.2
20260901164554 91 270 4.0 10.0 0.00 0.00 0.00 65 1016.3
20260901163056 90 226 4.0 9.0 0.00 0.00 0.00 66 1016.4
20260901161554 89 258 3.0 11.0 0.00 0.00 0.00 68 1016.5
20260901160059 89 275 5.0 11.0 0.00 0.00 0.00 65 1016.7
20260901154552 89 196 4.0 10.0 0.00 0.00 0.00 66 1016.6
20260901153055 88 225 4.0 10.0 0.00 0.00 0.00 67 1016.8
20260901151558 88 234 5.0 12.0 0.00 0.00 0.00 65 1016.9
20260901150053 89 211 5.0 12.0 0.00 0.00 0.00 65 1016.9
20260901144551 89 197 3.0 9.0 0.00 0.00 0.00 66 1017.0
20260901143054 87 271 6.0 12.0 0.00 0.00 0.00 68 1017.1
20260901141554 87 257 3.0 9.0 0.00 0.00 0.00 73 1016.9
20260901140101 85 297 5.0 10.0 0.00 0.00 0.00 74 1017.2
20260901134618 84 274 6.0 12.0 0.00 0.00 0.00 77 1017.4
20260901133059 83 253 6.0 10.0 0.00 0.00 0.00 79 1017.5
20260901131554 83 264 4.0 9.0 0.00 0.00 0.00 82 1017.4
20260901130059 81 248 4.0 9.0 0.00 0.00 0.00 87 1017.5
20260901124555 79 265 3.0 10.0 0.00 0.00 0.00 92 1017.6
20260901123053 78 251 5.0 8.0 0.00 0.00 0.00 95 1017.7
20260901121556 77 254 4.0 8.0 0.00 0.00 0.00 96 1017.9
20260901120059 76 254 3.0 7.0 0.00 0.00 0.00 96 1017.8
20260901114601 75 241 2.0 8.0 0.00 0.00 0.00 97 1017.8
20260901113054 75 238 3.0 7.0 0.00 0.00 0.00 97 1017.7
20260901111553 74 238 2.0 7.0 0.00 0.00 0.00 97 1017.4
20260901110100 74 211 2.0 6.0 0.00 0.00 0.00 96 1017.2
20260901104555 74 228 3.0 7.0 0.00 0.00 0.00 96 1017.3
20260901103103 74 232 4.0 7.0 0.00 0.00 0.00 96 1017.3
20260901101552 74 223 2.0 5.0 0.00 0.00 0.00 96 1017.3
20260901100057 74 223 2.0 5.0 0.00 0.00 0.00 96 1017.3
20260901094552 74 186 2.0 5.0 0.00 0.00 0.00 96 1017.3
20260901093102 74 0 1.0 5.0 0.00 0.00 0.00 96 1017.2
20260901091557 74 186 1.0 5.0 0.00 0.00 0.00 96 1017.2
20260901090052 74 0 1.0 6.0 0.00 0.00 0.00 95 1017.2
20260901084548 74 0 1.0 4.0 0.00 0.00 0.00 95 1017.5
20260901083059 74 182 1.0 3.0 0.00 0.00 0.00 95 1017.5
20260901081555 74 182 1.0 4.0 0.00 0.00 0.00 95 1017.3
20260901080054 74 182 0.0 5.0 0.00 0.00 0.00 95 1017.5
20260901074601 74 182 2.0 5.0 0.00 0.00 0.00 94 1017.7
20260901073101 74 182 1.0 3.0 0.00 0.00 0.00 94 1017.7
20260901071553 74 182 0.0 3.0 0.00 0.00 0.00 94 1017.7
20260901070048 74 0 0.0 2.0 0.00 0.00 0.00 93 1017.6
20260901064554 74 0 0.0 1.0 0.00 0.00 0.00 93 1017.7
20260901063052 74 0 0.0 1.0 0.00 0.00 0.00 93 1017.8
20260901061550 75 182 0.0 2.0 0.00 0.00 0.00 93 1018.0
20260901060100 75 0 1.0 3.0 0.00 0.00 0.00 92 1018.0
20260901054553 75 182 1.0 3.0 0.00 0.00 0.00 92 1018.4
20260901053053 75 0 0.0 0.0 0.00 0.00 0.00 92 1018.6
20260901051604 75 0 0.0 0.0 0.00 0.00 0.00 92 1018.9
20260901050055 75 0 0.0 0.0 0.00 0.00 0.00 91 1019.0
20260901044552 75 0 0.0 0.0 0.00 0.00 0.00 92 1018.9
20260901043052 75 0 0.0 1.0 0.00 0.00 0.00 91 1018.6
20260901041551 75 182 1.0 4.0 0.00 0.00 0.00 91 1018.6
20260901040112 75 182 0.0 4.0 0.00 0.00 0.00 91 1018.5
20260901034554 75 182 0.0 5.0 0.00 0.00 0.00 91 1018.5
20260901033056 75 183 3.0 6.0 0.00 0.00 0.00 91 1018.4
20260901031558 75 182 2.0 7.0 0.00 0.00 0.00 91 1018.3
20260901030054 75 174 2.0 6.0 0.00 0.00 0.00 91 1018.3
20260901024553 75 169 0.0 4.0 0.00 0.00 0.00 91 1018.3
20260901023054 75 0 1.0 5.0 0.00 0.00 0.00 91 1018.5
20260901021556 75 184 2.0 5.0 0.00 0.00 0.00 91 1018.8
20260901020054 75 184 1.0 4.0 0.00 0.00 0.00 91 1019.0
20260901014553 75 184 0.0 4.0 0.00 0.00 0.00 91 1018.9
20260901013112 75 167 1.0 5.0 0.00 0.00 0.00 91 1018.9
20260901011556 75 0 1.0 4.0 0.00 0.00 0.00 91 1018.9
20260901004601 76 145 1.0 4.0 0.00 0.00 0.00 90 1018.8
20260901003052 75 135 2.0 5.0 0.00 0.00 0.00 90 1018.7
20260901001549 76 133 2.0 6.0 0.00 0.00 0.00 90 1018.6
20260901000057 76 140 2.0 5.0 0.00 0.00 0.00 89 1018.7
20260831234557 76 142 3.0 5.0 0.00 0.00 0.00 89 1018.9
20260831233054 76 147 1.0 5.0 0.00 0.00 0.00 89 1018.9
20260831231548 76 151 4.0 8.0 0.00 0.00 0.00 89 1019.0
20260831230056 76 0 1.0 8.0 0.00 0.00 0.00 88 1019.3
20260831224554 76 132 3.0 8.0 0.00 0.00 0.00 88 1019.3
20260831223100 76 138 4.0 7.0 0.00 0.00 0.00 87 1019.4
20260831221617 77 140 5.0 9.0 0.00 0.00 0.00 87 1019.7
20260831220053 77 134 4.0 11.0 0.00 0.00 0.00 88 1019.8
20260831214549 77 123 7.0 12.0 0.00 0.00 0.00 88 1019.8
20260831213054 77 118 7.0 13.0 0.00 0.00 0.00 87 1019.9
20260831211555 77 173 6.0 13.0 0.00 0.00 0.00 87 1019.7
20260831210050 77 115 8.0 14.0 0.00 0.00 0.00 86 1019.7
20260831204547 77 85 9.0 13.0 0.00 0.00 0.00 84 1019.5
20260831203121 78 110 8.0 12.0 0.00 0.00 0.00 84 1019.3
20260831201604 78 104 8.0 11.0 0.00 0.00 0.00 82 1019.2
20260831200137 78 120 7.0 11.0 0.00 0.00 0.00 84 1019.3
20260831194559 78 61 7.0 12.0 0.00 0.00 0.00 85 1019.4
20260831193051 78 82 8.0 14.0 0.00 0.00 0.00 86 1019.5
20260831191548 78 41 7.0 12.0 0.00 0.00 0.00 86 1019.5
20260831190100 78 77 7.0 13.0 0.00 0.00 0.00 85 1019.6
20260831184554 78 74 8.0 13.0 0.00 0.00 0.00 85 1019.7
20260831183050 77 80 8.0 12.0 0.00 0.00 0.00 86 1019.7
20260831181552 78 35 8.0 13.0 0.00 0.00 0.00 85 1019.7
20260831180058 79 134 4.0 9.0 0.00 0.00 0.00 83 1019.9
20260831174553 80 132 4.0 10.0 0.00 0.00 0.00 81 1019.7